Flag for Canada Weather past 2 weeks in Moose Jaw, Saskatchewan, Canada

Now
61 °F

More clouds than sun.


Feels Like: 61 °F
Forecast: 49 / 76 °F
Wind: 12 mph from South

Location: Moose Jaw

Current Time: Jul 7, 2015 at 7:57:24 AM

Latest Report: Jul 7, 2015 at 7:00 AM


Visibility: 8 mi

Pressure: 30.06 "Hg (28.13 "Hg at 560m altitude)

Humidity: 72%

Dew point: 52 °F

Location of Moose JawLocation

Historic Weather in Moose Jaw — Graph

°F

Moose Jaw temperature yesterday

Maximum temperature yesterday: 70 °F (at 3:00 PM)
Minimum temperature yesterday: 52 °F (at 5:00 AM)
Average temperature yesterday: 62 °F

Past Weeks' High & Low Weather Summary

 TemperatureHumidityPressure
High91 °F (Jun 26, 4:00 PM)100% (Jul 2, 6:00 AM)30.26 "Hg (Jul 2, 6:00 AM)
Low50 °F (Jun 24, 5:00 AM)22% (Jun 26, 5:00 PM)29.74 "Hg (Jul 4, 9:00 AM)
Average71 °F58%30.02 "Hg
* Reported Jun 22 6:00 AM — Jul 7 6:00 AM, Moose Jaw, Weather by CustomWeather, © 2015

Note: Actual official high and low records may vary slightly from our data, if they occured in-between our weather recording intervals... More about our weather records

Advertising

Moose Jaw weather history for previous 24 hours

 ConditionsComfort  
Time TempWeatherWind HumidityBarometerVisibility
6:00 AM
Tue, Jul 7
59 °FPartly sunny.15 mph72%30.06 "Hg10 mi
5:00 AM59 °FPartly sunny.14 mph72%30.06 "Hg12 mi
4:00 AM59 °FPartly cloudy.16 mph72%30.08 "Hg15 mi
6:00 PM
Mon, Jul 6
70 °FScattered clouds.No wind33%30.17 "Hg7 mi
5:00 PM70 °FPassing clouds.5 mph33%30.18 "Hg7 mi
4:00 PM68 °FPassing clouds.3 mph38%30.19 "Hg6 mi
3:54 PM70 °FPassing clouds.3 mph38%30.19 "Hg6 mi
3:00 PM70 °FPassing clouds.3 mph35%30.20 "Hg7 mi
2:00 PM66 °FPassing clouds.2 mph43%30.22 "Hg7 mi
1:00 PM66 °FPassing clouds.2 mph43%30.23 "Hg8 mi
12:00 PM63 °FPassing clouds.2 mph45%30.24 "Hg10 mi
11:00 AM63 °FPassing clouds.3 mph45%30.25 "Hg12 mi
10:00 AM61 °FPassing clouds.2 mph59%30.25 "Hg15 mi
9:00 AM61 °FPassing clouds.3 mph63%30.26 "Hg15 mi
8:00 AM57 °FPassing clouds.No wind77%30.26 "Hg12 mi
7:00 AM54 °FScattered clouds.No wind88%30.25 "Hg8 mi
Weather by CustomWeather, © 2015

See weather overviewHow to use our weather pages